This is the latest recevied weather packets stored in our database for station/object N5XJB. If no packets are shown the sender has not sent any weather packets the latest 10 day(s).
| Time | Temp. | Humidity | Pressure | Rain* | Wind** | Luminosity | Snow |
|---|---|---|---|---|---|---|---|
| 1777591112 | 23.89° C | 81% | 1009.7 hPa | 0 mm | - | 93 W/m² | - |
| 1777590808 | 23.89° C | 81% | 1009.7 hPa | 0 mm | - | 119 W/m² | - |
| 1777590505 | 23.89° C | 81% | 1009.7 hPa | 0 mm | - | 183 W/m² | - |
| 1777590201 | 23.89° C | 81% | 1009.3 hPa | 0 mm | - | 174 W/m² | - |
| 1777589898 | 24.44° C | 81% | 1009.3 hPa | 0 mm | - | 143 W/m² | - |
| 1777589594 | 24.44° C | 80% | 1009.3 hPa | 0 mm | - | 137 W/m² | - |
| 1777589291 | 24.44° C | 79% | 1009.7 hPa | 0 mm | - | 129 W/m² | - |
| 1777588989 | 25° C | 78% | 1009.3 hPa | 0 mm | - | 170 W/m² | - |
| 1777588684 | 25° C | 79% | 1009.3 hPa | 0 mm | - | 191 W/m² | - |
| 1777588380 | 25° C | 78% | 1009.3 hPa | 0 mm | - | 302 W/m² | - |
| 1777588076 | 25° C | 78% | 1009.3 hPa | 0 mm | - | 314 W/m² | - |
| 1777587772 | 25.56° C | 77% | 1009.7 hPa | 0 mm | - | 301 W/m² | - |
| 1777587471 | 25.56° C | 77% | 1009.7 hPa | 0 mm | - | 319 W/m² | - |
| 1777587168 | 25.56° C | 77% | 1009.3 hPa | 0 mm | - | 418 W/m² | - |
| 1777586864 | 25.56° C | 77% | 1009.3 hPa | 0 mm | - | 366 W/m² | - |
| 1777586559 | 25.56° C | 74% | 1009.7 hPa | 0 mm | - | 425 W/m² | - |
| 1777586255 | 25.56° C | 76% | 1009.7 hPa | 0 mm | - | 473 W/m² | - |
| 1777585953 | 25.56° C | 75% | 1009.7 hPa | 0 mm | - | 486 W/m² | - |
| 1777585648 | 25.56° C | 75% | 1009.7 hPa | 0 mm | - | 527 W/m² | - |
| 1777585343 | 25° C | 76% | 1009.7 hPa | 0 mm | - | 605 W/m² | - |
| 1777585038 | 24.44° C | 79% | 1009.7 hPa | 0 mm | - | 626 W/m² | - |
| 1777584735 | 24.44° C | 80% | 1010 hPa | 0 mm | - | 234 W/m² | - |
| 1777584433 | 24.44° C | 79% | 1010 hPa | 0 mm | - | 582 W/m² | - |
| 1777584129 | 24.44° C | 81% | 1010 hPa | 0 mm | - | 340 W/m² | - |
| 1777583828 | 23.89° C | 81% | 1010 hPa | 0 mm | - | 348 W/m² | - |
* Rain latest hour (hover to see other rain measurements)
** Current wind speed in m/s (hover to see current wind gust speed)